EA4LT-13 Weather Reports


Display with metric or nautical units.
time (UTC)temp
F
wind
direction
speed
MPH
gust
MPH
rain 1hr
in
rain 24hr
in
rain mn
in
humidity
%
barometer
mb
20260905154400 93 135 6.0 11.0 0.00 0.00 0.00 32 1018.1
20260905152900 92 180 3.0 11.0 0.00 0.00 0.00 32 1018.1
20260905151359 93 180 7.0 10.0 0.00 0.00 0.00 31 1018.1
20260905145900 93 158 2.0 12.0 0.00 0.00 0.00 31 1018.2
20260905144400 93 180 5.0 12.0 0.00 0.00 0.00 31 1018.5
20260905142900 93 135 8.0 15.0 0.00 0.00 0.00 31 1018.5
20260905141359 93 180 9.0 13.0 0.00 0.00 0.00 31 1018.7
20260905135858 92 158 7.0 12.0 0.00 0.00 0.00 33 1018.7
20260905134400 93 180 9.0 15.0 0.00 0.00 0.00 33 1018.8
20260905132858 90 158 8.0 13.0 0.00 0.00 0.00 35 1019.0
20260905131359 90 158 7.0 12.0 0.00 0.00 0.00 35 1018.9
20260905125858 90 180 7.0 12.0 0.00 0.00 0.00 35 1019.0
20260905124358 89 180 7.0 15.0 0.00 0.00 0.00 36 1019.2
20260905122900 89 180 9.0 17.0 0.00 0.00 0.00 37 1019.4
20260905121358 89 135 6.0 15.0 0.00 0.00 0.00 39 1019.5
20260905115859 87 135 3.0 6.0 0.00 0.00 0.00 41 1019.7
20260905114359 86 180 5.0 12.0 0.00 0.00 0.00 42 1019.8
20260905112859 87 158 3.0 8.0 0.00 0.00 0.00 42 1019.8
20260905111359 86 135 6.0 10.0 0.00 0.00 0.00 42 1020.0
20260905105858 85 180 5.0 8.0 0.00 0.00 0.00 43 1020.1
20260905104359 85 158 5.0 11.0 0.00 0.00 0.00 42 1020.0
20260905102859 85 180 4.0 9.0 0.00 0.00 0.00 41 1019.6
20260905101358 84 180 3.0 8.0 0.00 0.00 0.00 41 1019.8
20260905095859 84 180 3.0 6.0 0.00 0.00 0.00 41 1019.3
20260905094358 84 180 3.0 6.0 0.00 0.00 0.00 42 1019.3
20260905092858 83 158 1.0 6.0 0.00 0.00 0.00 43 1019.1
20260905091358 83 158 4.0 8.0 0.00 0.00 0.00 42 1019.0
20260905085858 84 225 3.0 4.0 0.00 0.00 0.00 41 1018.9
20260905084357 83 225 1.0 3.0 0.00 0.00 0.00 42 1018.5
20260905082858 82 225 0.0 3.0 0.00 0.00 0.00 41 1018.6
20260905081357 82 202 2.0 6.0 0.00 0.00 0.00 42 1018.6
20260905075857 81 202 1.0 4.0 0.00 0.00 0.00 43 1018.4
20260905074359 82 202 3.0 4.0 0.00 0.00 0.00 43 1018.2
20260905072856 80 225 0.0 3.0 0.00 0.00 0.00 44 1018.1
20260905071358 79 202 2.0 4.0 0.00 0.00 0.00 46 1018.1
20260905065857 78 202 2.0 6.0 0.00 0.00 0.00 47 1017.7
20260905064357 78 202 1.0 3.0 0.00 0.00 0.00 47 1017.8
20260905062857 78 202 0.0 3.0 0.00 0.00 0.00 47 1017.7
20260905061357 77 180 1.0 2.0 0.00 0.00 0.00 47 1017.5
20260905055856 77 158 2.0 2.0 0.00 0.00 0.00 47 1017.5
20260905054357 76 158 0.0 0.0 0.00 0.00 0.00 49 1017.0
20260905052856 76 158 0.0 1.0 0.00 0.00 0.00 48 1017.2
20260905051356 78 135 1.0 4.0 0.00 0.00 0.00 45 1017.2
20260905045857 78 202 0.0 1.0 0.00 0.00 0.00 45 1017.3
20260905044357 78 202 0.0 0.0 0.00 0.00 0.00 45 1017.3
20260905042856 79 202 0.0 1.0 0.00 0.00 0.00 44 1017.1
20260905041357 81 292 0.0 2.0 0.00 0.00 0.00 41 1017.0
20260905035855 81 292 2.0 2.0 0.00 0.00 0.00 41 1016.9
20260905034356 81 292 0.0 4.0 0.00 0.00 0.00 42 1016.9
20260905032857 80 292 3.0 6.0 0.00 0.00 0.00 44 1017.0
20260905031357 78 292 3.0 3.0 0.00 0.00 0.00 47 1017.1
20260905025857 77 315 3.0 4.0 0.00 0.00 0.00 48 1017.2
20260905024356 80 360 1.0 2.0 0.00 0.00 0.00 43 1017.1
20260905022857 82 292 0.0 2.0 0.00 0.00 0.00 40 1017.3
20260905021356 81 292 0.0 2.0 0.00 0.00 0.00 42 1017.0
20260905015856 81 270 0.0 2.0 0.00 0.00 0.00 43 1017.2
20260905014355 83 90 0.0 1.0 0.00 0.00 0.00 40 1017.2
20260905012856 83 315 0.0 1.0 0.00 0.00 0.00 40 1017.3
20260905011356 83 315 0.0 1.0 0.00 0.00 0.00 41 1017.4
20260905005856 83 202 0.0 1.0 0.00 0.00 0.00 41 1017.7
20260905004356 82 180 0.0 1.0 0.00 0.00 0.00 45 1017.7
20260905002855 84 135 0.0 3.0 0.00 0.00 0.00 42 1017.9
20260905001355 83 248 0.0 0.0 0.00 0.00 0.00 43 1018.2
20260904235856 83 292 0.0 1.0 0.00 0.00 0.00 43 1018.8
20260904234354 84 292 0.0 2.0 0.00 0.00 0.00 42 1019.3
20260904232855 84 292 1.0 3.0 0.00 0.00 0.00 41 1019.1
20260904231354 85 292 3.0 9.0 0.00 0.00 0.00 41 1019.1
20260904225855 85 292 6.0 11.0 0.00 0.00 0.00 41 1019.1
20260904224355 84 315 6.0 9.0 0.00 0.00 0.00 42 1018.9
20260904222855 82 135 0.0 6.0 0.00 0.00 0.00 44 1019.1
20260904221354 83 270 0.0 4.0 0.00 0.00 0.00 44 1019.1
20260904215854 84 315 0.0 4.0 0.00 0.00 0.00 43 1019.1
20260904214354 84 315 3.0 8.0 0.00 0.00 0.00 43 1018.6
20260904212854 82 292 2.0 3.0 0.00 0.00 0.00 46 1018.8
20260904211355 83 338 3.0 6.0 0.00 0.00 0.00 43 1018.3
20260904205854 83 315 5.0 8.0 0.00 0.00 0.00 45 1018.6
20260904204355 84 315 0.0 4.0 0.00 0.00 0.00 40 1018.5
20260904202856 84 292 1.0 9.0 0.00 0.00 0.00 40 1018.4
20260904201354 85 315 7.0 11.0 0.00 0.00 0.00 38 1018.0
20260904200245 85 315 3.0 4.0 0.00 0.00 0.00 38 1018.6
20260904194746 85 158 1.0 13.0 0.00 0.00 0.00 38 1018.7
20260904193246 85 292 4.0 6.0 0.00 0.00 0.00 41 1018.9
20260904191747 85 270 2.0 10.0 0.00 0.00 0.00 39 1018.7
20260904190247 85 270 4.0 9.0 0.00 0.00 0.00 38 1018.7
20260904184745 86 270 3.0 6.0 0.00 0.00 0.00 36 1018.6
20260904183246 86 315 3.0 8.0 0.00 0.00 0.00 36 1017.9
20260904181746 87 292 3.0 6.0 0.00 0.00 0.00 36 1018.1
20260904180245 87 292 3.0 6.0 0.00 0.00 0.00 36 1018.1
20260904174745 88 292 0.0 6.0 0.00 0.00 0.00 34 1017.9
20260904173245 89 315 3.0 4.0 0.00 0.00 0.00 33 1018.3
20260904171744 89 338 2.0 4.0 0.00 0.00 0.00 32 1018.2
20260904170246 89 292 2.0 6.0 0.00 0.00 0.00 32 1018.4
20260904164744 89 338 4.0 8.0 0.00 0.00 0.00 31 1018.6
20260904163246 90 315 4.0 8.0 0.00 0.00 0.00 32 1018.6
20260904161745 91 292 1.0 8.0 0.00 0.00 0.00 32 1018.5
20260904160244 91 292 5.0 9.0 0.00 0.00 0.00 33 1019.0